Weather History for KT82 - April, 2014

Change the Weather History Date:

Sunday, April 13, 2014

  Actual Average (KSAT) Record (KSAT)
Temperature  
Mean Temperature 70 °F 69 °F  
Max Temperature 77 °F 80 °F 100 °F (1982)
Min Temperature 64 °F 57 °F 35 °F (1940)
Degree Days  
Heating Degree Days 0 2  
Month to date heating degree days 28  
Since 1 July heating degree days 1483  
Cooling Degree Days 6 5  
Month to date cooling degree days 56  
Year to date cooling degree days 147  
Growing Degree Days 20 (Base 50)    
Moisture  
Dew Point 63 °F    
Average Humidity 78    
Maximum Humidity 94    
Minimum Humidity 60    
Precipitation  
Precipitation 0.00 in 0.06 in 2.24 in (1902)
Month to date precipitation 0.78  
Year to date precipitation 6.64  
Snow  
Snow 0.00 in - - ()
Month to date snowfall  
Since 1 July snowfall  
Snow Depth -    
Sea Level Pressure  
Sea Level Pressure 29.78 in    
Wind  
Wind Speed 10 mph (South)    
Max Wind Speed 20 mph    
Max Gust Speed 28 mph    
Visibility 9 miles    
Events Rain    
T = Trace of Precipitation, MM = Missing Value Source: NWS Daily Summary

Daily Weather History Graph

Daily Weather History Graph

Search for Another Location

Airport or City:

Trip Planner

Search our weather history database for the weather conditions in past years. The results will help you decide how hot, cold, wet, or windy it might be!

Date:

Astronomy

Apr. 13, 2014 Rise Set
Actual Time 7:10 AM CDT 8:01 PM CDT
Civil Twilight 6:46 AM CDT 8:26 PM CDT
Nautical Twilight 6:17 AM CDT 8:55 PM CDT
Astronomical Twilight 5:47 AM CDT 9:25 PM CDT
Moon 6:46 PM CDT (4/13) 6:03 AM CDT (4/13)
Length of Visible Light 13h 40m
Length of Day
12h 51m
Waxing Gibbous, 97% of the Moon is Illuminated
Apr 13
Waxing Gibbous
Apr 15
Full
Apr 22
Last Quarter
Apr 29
New
May 6
First Quarter

Hourly Weather History & Observations

Time (CDT) Temp. Dew Point Humidity Pressure Visibility Wind Dir Wind Speed Gust Speed Precip Events Conditions
12:15 AM 68.4 °F 62.6 °F 82% 29.86 in 10.0 mi South 12.7 mph 18.4 mph N/A   Overcast
12:35 AM 68.0 °F 62.6 °F 83% 29.86 in 10.0 mi South 17.3 mph 20.7 mph N/A   Overcast
12:55 AM 67.6 °F 62.6 °F 84% 29.86 in 10.0 mi South 19.6 mph 27.6 mph N/A   Overcast
1:15 AM 67.6 °F 62.2 °F 83% 29.85 in 10.0 mi South 12.7 mph 17.3 mph N/A   Overcast
1:35 AM 67.5 °F 62.1 °F 83% 29.86 in 10.0 mi South 15.0 mph 19.6 mph N/A   Overcast
1:55 AM 67.5 °F 61.7 °F 82% 29.85 in 10.0 mi South 15.0 mph 24.2 mph N/A   Overcast
2:15 AM 67.3 °F 61.7 °F 82% 29.85 in 10.0 mi SSW 11.5 mph - N/A   Overcast
2:35 AM 67.1 °F 61.3 °F 82% 29.85 in 10.0 mi SSW 8.1 mph - N/A   Overcast
2:55 AM 67.1 °F 61.3 °F 82% 29.85 in 10.0 mi SSW 11.5 mph - N/A   Overcast
3:15 AM 66.2 °F 61.5 °F 85% 29.84 in 10.0 mi South 16.1 mph 20.7 mph N/A   Overcast
3:35 AM 65.3 °F 61.9 °F 89% 29.84 in 7.0 mi South 10.4 mph - N/A   Overcast
3:55 AM 64.8 °F 62.2 °F 92% 29.84 in 7.0 mi South 8.1 mph - N/A   Overcast
4:15 AM 64.6 °F 62.6 °F 93% 29.83 in 7.0 mi SSW 10.4 mph - N/A   Overcast
4:35 AM 64.6 °F 62.6 °F 93% 29.83 in 5.0 mi South 10.4 mph - N/A   Overcast
4:55 AM 64.4 °F 62.6 °F 94% 29.82 in 5.0 mi South 9.2 mph - N/A   Overcast
5:15 AM 64.4 °F 62.6 °F 94% 29.82 in 5.0 mi SSW 5.8 mph - N/A   Overcast
5:35 AM 64.4 °F 62.8 °F 94% 29.81 in 5.0 mi South 6.9 mph - N/A   Overcast
5:55 AM 64.4 °F 62.8 °F 94% 29.80 in 5.0 mi South 5.8 mph - N/A   Overcast
6:15 AM 64.4 °F 62.8 °F 94% 29.80 in 5.0 mi SSE 4.6 mph - N/A   Overcast
6:35 AM 64.4 °F 62.8 °F 94% 29.79 in 4.0 mi SSE 6.9 mph - N/A   Overcast
6:55 AM 64.4 °F 62.8 °F 94% 29.79 in 5.0 mi SSE 10.4 mph - N/A   Overcast
7:15 AM 64.6 °F 62.8 °F 94% 29.78 in 7.0 mi South 11.5 mph 17.3 mph N/A   Overcast
7:35 AM 64.6 °F 62.8 °F 94% 29.79 in 7.0 mi SSE 9.2 mph 18.4 mph N/A   Overcast
7:55 AM 65.3 °F 62.6 °F 91% 29.80 in 7.0 mi South 10.4 mph 16.1 mph N/A   Overcast
8:15 AM 65.5 °F 62.6 °F 90% 29.81 in 7.0 mi South 8.1 mph - N/A   Overcast
8:35 AM 66.0 °F 62.6 °F 89% 29.83 in 7.0 mi SSW 9.2 mph - N/A   Overcast
8:55 AM 66.2 °F 62.6 °F 88% 29.85 in 7.0 mi SSW 8.1 mph - N/A   Overcast
9:15 AM 66.7 °F 62.8 °F 87% 29.82 in 7.0 mi SSE 6.9 mph - N/A   Overcast
9:35 AM 67.3 °F 62.8 °F 85% 29.85 in 10.0 mi SW 6.9 mph - N/A   Overcast
9:55 AM 67.3 °F 62.8 °F 85% 29.86 in 10.0 mi WSW 5.8 mph - N/A   Overcast
10:15 AM 67.5 °F 62.6 °F 84% 29.86 in 10.0 mi SW 10.4 mph - N/A   Overcast
10:35 AM 67.5 °F 62.6 °F 84% 29.86 in 10.0 mi SSW 9.2 mph - N/A   Overcast
10:55 AM 68.0 °F 62.8 °F 83% 29.87 in 10.0 mi SW 10.4 mph - N/A   Overcast
11:15 AM 68.9 °F 62.8 °F 81% 29.87 in 10.0 mi SSW 10.4 mph - N/A   Overcast
11:35 AM 67.8 °F 62.6 °F 83% 29.87 in 10.0 mi SSW 10.4 mph - N/A   Overcast
11:55 AM 67.3 °F 63.0 °F 86% 29.86 in 7.0 mi SW 4.6 mph - N/A   Overcast
12:15 PM 68.0 °F 63.0 °F 84% 29.86 in 10.0 mi SW 3.5 mph - N/A   Overcast
12:35 PM 68.2 °F 63.0 °F 83% 29.85 in 10.0 mi Calm Calm - N/A   Light Drizzle
12:55 PM 69.6 °F 63.0 °F 79% 29.81 in 10.0 mi SSE 5.8 mph - N/A   Overcast
1:15 PM 71.1 °F 62.1 °F 73% 29.79 in 10.0 mi South 11.5 mph 16.1 mph N/A   Scattered Clouds
1:35 PM 71.8 °F 61.7 °F 70% 29.80 in 10.0 mi South 8.1 mph - N/A   Clear
1:55 PM 72.0 °F 61.7 °F 70% 29.77 in 10.0 mi South 11.5 mph - N/A   Scattered Clouds
2:15 PM 71.8 °F 61.2 °F 69% 29.75 in 10.0 mi SSE 10.4 mph 19.6 mph N/A   Overcast
2:35 PM 71.8 °F 61.7 °F 70% 29.71 in 10.0 mi SE 12.7 mph 19.6 mph N/A Rain Light Rain
2:55 PM 73.2 °F 62.1 °F 68% 29.73 in 10.0 mi South 6.9 mph - N/A   Scattered Clouds
3:15 PM 73.4 °F 61.9 °F 67% 29.73 in 10.0 mi South 6.9 mph 10.4 mph N/A   Scattered Clouds
3:35 PM 73.8 °F 62.4 °F 68% 29.73 in 10.0 mi South 8.1 mph - N/A   Clear
3:55 PM 74.5 °F 62.6 °F 66% 29.73 in 10.0 mi South 11.5 mph - N/A   Clear
4:15 PM 75.0 °F 62.6 °F 65% 29.71 in 10.0 mi South 6.9 mph - N/A   Clear
4:35 PM 75.4 °F 62.6 °F 64% 29.72 in 10.0 mi SSW 6.9 mph - N/A   Clear
4:55 PM 76.3 °F 62.6 °F 62% 29.71 in 10.0 mi SSW 10.4 mph - N/A   Clear
5:15 PM 76.1 °F 62.4 °F 62% 29.71 in 10.0 mi South 11.5 mph 16.1 mph N/A   Clear
5:35 PM 76.5 °F 62.6 °F 62% 29.71 in 10.0 mi South 11.5 mph - N/A   Clear
5:55 PM 77.0 °F 62.6 °F 61% 29.70 in 10.0 mi South 10.4 mph - N/A   Clear
6:15 PM 76.5 °F 62.6 °F 62% 29.70 in 10.0 mi South 9.2 mph - N/A   Clear
6:35 PM 76.6 °F 62.6 °F 62% 29.70 in 10.0 mi South 11.5 mph - N/A   Clear
6:55 PM 77.2 °F 62.6 °F 61% 29.69 in 10.0 mi South 6.9 mph - N/A   Clear
7:15 PM 77.2 °F 62.6 °F 61% 29.69 in 10.0 mi South 8.1 mph - N/A   Clear
7:35 PM 77.0 °F 62.2 °F 60% 29.69 in 10.0 mi SSW 5.8 mph - N/A   Clear
7:55 PM 75.9 °F 62.1 °F 62% 29.70 in 10.0 mi South 5.8 mph - N/A   Clear
8:15 PM 74.3 °F 61.9 °F 65% 29.70 in 10.0 mi South 3.5 mph - N/A   Clear
8:35 PM 71.8 °F 61.3 °F 70% 29.70 in 10.0 mi NW 4.6 mph - N/A   Clear
8:55 PM 75.0 °F 61.9 °F 64% 29.70 in 10.0 mi South 6.9 mph - N/A   Clear
9:15 PM 73.4 °F 61.7 °F 67% 29.71 in 10.0 mi West 3.5 mph - N/A   Clear
9:35 PM 73.4 °F 61.9 °F 67% 29.71 in 10.0 mi SSE 4.6 mph - N/A   Clear
9:55 PM 73.2 °F 61.9 °F 68% 29.72 in 10.0 mi SE 3.5 mph - N/A   Clear
10:15 PM 72.5 °F 62.6 °F 71% 29.73 in 10.0 mi SSE 4.6 mph - N/A   Clear
10:35 PM 72.1 °F 63.9 °F 75% 29.73 in 10.0 mi SSE 6.9 mph - N/A   Clear
10:55 PM 71.6 °F 64.4 °F 78% 29.74 in 10.0 mi SE 3.5 mph - N/A   Clear
11:15 PM 71.1 °F 65.3 °F 82% 29.74 in 10.0 mi SSE 4.6 mph - N/A   Clear
11:35 PM 70.2 °F 65.7 °F 86% 29.74 in 10.0 mi South 5.8 mph - N/A   Scattered Clouds
11:55 PM 70.9 °F 66.6 °F 86% 29.74 in 10.0 mi SSE 3.5 mph - N/A   Mostly Cloudy